Regional Weather Roundup
Issued by NWS

Home | Current Version | Previous Version | Graphics & Text | Print | Product List | Glossary On
Versions: 1 2 3 4 5 6 7 8 9 10 11 12 13 14 15 16 17 18 19 20 21 22 23 24 25 26 27 28 29 30 31 32 33 34 35 36 37 38 39 40 41 42 43 44 45 46 47 48 49 50
443
ASUS43 KDMX 100903
RWRIA

WEATHER ROUNDUP FOR IOWA
NATIONAL WEATHER SERVICE DES MOINES IA
300 AM CST WED FEB 10 2016

NOTE: "FAIR" INDICATES FEW OR NO CLOUDS BELOW 12,000 FEET WITH NO
SIGNIFICANT WEATHER AND/OR OBSTRUCTIONS TO VISIBILITY.

* - THESE STATIONS ARE NOT NWS STATIONS...THUS NOT UNDER NWS
QUALITY CONTROL.  THEY ALSO DO NOT REPORT WEATHER SUCH
AS PRECIPITATION OR FOG.

IAZ001>003-012>014-020>022-031>034-043>046-101000-
   NORTHWEST IOWA

CITY           SKY/WX    TMP DP  RH WIND       PRES   REMARKS
CARROLL *      CLOUDY    16  12  86 W3        30.12F
CHEROKEE *     CLOUDY    18  14  86 S3        30.10F
DENISON *      CLOUDY    18  12  79 CALM      30.10F
LE MARS *      CLOUDY    21  16  79 SE7       30.11F WCI  13
ORANGE CITY *  CLOUDY    18  16  93 CALM      30.08F
SHELDON *      CLOUDY    18  14  86 CALM      30.07F
SIOUX CITY     CLOUDY    20  14  77 E9        30.09F WCI   9
SPENCER        CLOUDY    17  10  74 N3        30.10F
STORM LAKE *   CLOUDY    18  14  86 W7        30.09F WCI   8
$$

IAZ055>058-069>071-079>083-090>094-101000-
   SOUTHWEST IOWA

CITY           SKY/WX    TMP DP  RH WIND       PRES   REMARKS
ATLANTIC *     CLOUDY    18  12  79 CALM      30.14S
AUDUBON *      CLOUDY    19  12  73 CALM      30.12S
CLARINDA *     CLEAR     16  14  93 CALM      30.19S
COUNCIL BLFS * CLOUDY    21  14  73 S7        30.12F WCI  13
CRESTON *      CLOUDY    19  12  73 W5        30.14S WCI  13
HARLAN  *      CLOUDY    18  14  86 S3        30.15F
LAMONI         CLEAR     16  11  80 W6        30.15R WCI   7
RED OAK *      CLEAR     18  14  86 CALM      30.16F
SHENANDOAH *   CLOUDY    21  19  93 CALM      30.18F
$$

IAZ047>049-059>061-072>074-084-101000-
   CENTRAL IOWA

CITY           SKY/WX    TMP DP  RH WIND       PRES   REMARKS
AMES           CLOUDY    13   6  74 N9        30.14S WCI   1
ANKENY *       CLOUDY    14   7  73 N6        30.15S WCI   5
BOONE *        CLOUDY    12   7  79 NW7       30.12S WCI   2
CHARITON *     CLOUDY    12   7  79 NW5       30.15S WCI   4
DES MOINES     CLOUDY    17   7  64 N8        30.15F WCI   7
GRINNELL*      CLEAR      9   5  85 W7        30.12S WCI  -3
KNOXVILLE *    MOCLDY    12   5  73 NW8       30.14S WCI   1
MARSHALLTOWN   CLOUDY     5   1  83 NW8       30.12S WCI  -8
NEWTON *       CLEAR     10   5  79 NW7       30.14S WCI   0
PELLA *        CLEAR     10   6  82 NW6       30.16S WCI   1
$$

IAZ004>006-015-016-023>025-035-036-101000-
   NORTH CENTRAL IOWA

CITY           SKY/WX    TMP DP  RH WIND       PRES   REMARKS
ALGONA *       CLOUDY    12   7  79 N9        30.09F WCI   0
CLARION *      CLOUDY     3  -2  78 N6        30.11F WCI  -8
ESTHERVILLE    CLOUDY    11   5  77 N9        30.09F WCI  -2
FORT DODGE *   CLOUDY    10   5  79 CALM      30.13S
MASON CITY     CLOUDY     2  -2  83 NW8       30.10F WCI -12
FOREST CITY *    N/A      5   0  78 W3        30.09F
WEBSTER CITY * CLOUDY    10   5  79 NW7       30.10F WCI   0
IOWA FALLS *     N/A      3   0  85 NW8       30.12S WCI -10
$$

IAZ007>011-017>019-026>030-037>042-050>054-066-101000-
   NORTHEAST IOWA

CITY           SKY/WX    TMP DP  RH WIND       PRES   REMARKS
CEDAR RAPIDS   CLEAR      6   1  80 NW10      30.09F WCI  -9
CHARLES CITY * PTCLDY     3  -2  78 NW9       30.09F WCI -11
CLINTON *      CLEAR      8   1  73 NW10      30.08R WCI  -6
DECORAH *      CLOUDY     1  -8  66 W5        30.05F WCI  -8
DUBUQUE        CLEAR      6  -3  66 NW13      30.04R WCI -10
MONTICELLO *   CLEAR      7  -2  66 NW5       30.08F WCI  -2
OELWEIN *      CLOUDY     0  -6  78 NW9       30.08F WCI -16
WATERLOO       PTCLDY     3  -1  83 W6        30.10F WCI  -8
$$

IAZ064-065-067-068-078-101000-
   EAST CENTRAL IOWA

CITY           SKY/WX    TMP DP  RH WIND       PRES   REMARKS
DAVENPORT      CLEAR      8   0  69 NW8       30.09R WCI  -4
IOWA CITY      CLEAR      9   1  70 NW9       30.14R WCI  -4
MT. PLEASANT * CLEAR     13   6  73 W8        30.13S WCI   1
MUSCATINE *    CLEAR     10   3  72 NW8       30.14R WCI  -1
QUAD CITIES    CLEAR      9   0  67 NW8       30.10R WCI  -3
$$

IAZ062-063-075>077-085>089-095>099-101000-
   SOUTHEAST IOWA

CITY           SKY/WX    TMP DP  RH WIND       PRES   REMARKS
BURLINGTON     CLEAR     10   2  69 NW8       30.12R WCI  -2
FAIRFIELD *    CLEAR     10   3  72 NW7       30.13S WCI   0
FORT MADISON * CLEAR     10   5  79 W8        30.13S WCI  -1
KEOKUK *       CLEAR     12   7  79 W7        30.14S WCI   2
OSKALOOSA *      N/A     10   5  79 NW6       30.14S WCI   1
OTTUMWA        CLEAR     11   5  77 NW9       30.14S WCI  -2
WASHINGTON *   CLEAR     10   1  67 NW10G16   30.14R WCI  -3
$$

ABBREVIATIONS USED IN REMARKS
   TC - TEMPERATURES IN CELSIUS
  WCI - WIND CHILL INDEX
   HX - HEAT INDEX
  VSB - VISIBILITY
$$





USA.gov is the U.S. government's official web portal to all federal, state and local government web resources and services.